| time (UTC) | temp F | wind direction | speed MPH | gust MPH | rain 1hr in | rain 24hr in | rain mn in | humidity % | barometer mb |
| 20260505124659 | 66 | 281 | 4.0 | 12.0 | 0.00 | 0.00 | 0.00 | 51 | 1011.4 |
| 20260505123931 | 66 | 237 | 3.0 | 10.0 | 0.00 | 0.00 | 0.00 | 52 | 1011.5 |
| 20260505123905 | 63 | 256 | 1.0 | 7.0 | 0.00 | 0.00 | 0.00 | 54 | 1011.2 |
| 20260505123846 | 66 | 273 | 3.0 | 12.0 | 0.00 | 0.00 | 0.00 | 51 | 1011.4 |
| 20260505123724 | 66 | 237 | 3.0 | 10.0 | 0.00 | 0.00 | 0.00 | 52 | 1011.5 |
| 20260505122516 | 65 | 255 | 2.0 | 10.0 | 0.00 | 0.00 | 0.00 | 53 | 1011.5 |
| 20260505122322 | 65 | 239 | 2.0 | 13.0 | 0.00 | 0.00 | 0.00 | 52 | 1011.6 |
| 20260505121649 | 65 | 227 | 1.0 | 9.0 | 0.00 | 0.00 | 0.00 | 52 | 1011.6 |
| 20260505121435 | 65 | 242 | 1.0 | 10.0 | 0.00 | 0.00 | 0.00 | 53 | 1011.6 |
| 20260505120211 | 64 | 229 | 2.0 | 11.0 | 0.00 | 0.00 | 0.00 | 53 | 1011.5 |
| 20260505120006 | 64 | 265 | 1.0 | 11.0 | 0.00 | 0.00 | 0.00 | 53 | 1011.4 |
| 20260505115903 | 64 | 247 | 2.0 | 11.0 | 0.00 | 0.00 | 0.00 | 53 | 1011.4 |
| 20260505115734 | 64 | 269 | 2.0 | 11.0 | 0.00 | 0.00 | 0.00 | 53 | 1011.5 |
| 20260505114638 | 64 | 247 | 2.0 | 11.0 | 0.00 | 0.00 | 0.00 | 53 | 1011.4 |
| 20260505114022 | 64 | 248 | 2.0 | 8.0 | 0.00 | 0.00 | 0.00 | 53 | 1011.3 |
| 20260505113021 | 63 | 267 | 1.0 | 8.0 | 0.00 | 0.00 | 0.00 | 54 | 1011.2 |
| 20260505112926 | 63 | 260 | 1.0 | 7.0 | 0.00 | 0.00 | 0.00 | 54 | 1011.2 |
| 20260505112506 | 63 | 270 | 1.0 | 9.0 | 0.00 | 0.00 | 0.00 | 54 | 1011.2 |
| 20260505111850 | 63 | 270 | 1.0 | 9.0 | 0.00 | 0.00 | 0.00 | 54 | 1011.2 |
| 20260505111029 | 63 | 267 | 1.0 | 8.0 | 0.00 | 0.00 | 0.00 | 54 | 1011.2 |
| 20260505110451 | 63 | 198 | 1.0 | 8.0 | 0.00 | 0.00 | 0.00 | 54 | 1011.2 |
| 20260505101925 | 62 | 279 | 1.0 | 8.0 | 0.00 | 0.00 | 0.00 | 55 | 1010.9 |
| 20260505101859 | 62 | 279 | 1.0 | 8.0 | 0.00 | 0.00 | 0.00 | 55 | 1010.9 |
| 20260505101350 | 62 | 279 | 1.0 | 8.0 | 0.00 | 0.00 | 0.00 | 55 | 1010.9 |
| 20260505100530 | 62 | 240 | 2.0 | 9.0 | 0.00 | 0.00 | 0.00 | 55 | 1010.9 |
| 20260505100105 | 62 | 259 | 2.0 | 9.0 | 0.00 | 0.00 | 0.00 | 55 | 1010.8 |
| 20260505095746 | 63 | 242 | 2.0 | 8.0 | 0.00 | 0.00 | 0.00 | 55 | 1010.5 |
| 20260505095654 | 64 | 250 | 1.0 | 7.0 | 0.00 | 0.00 | 0.00 | 55 | 1010.3 |
| 20260505095515 | 62 | 246 | 2.0 | 9.0 | 0.00 | 0.00 | 0.00 | 55 | 1010.8 |
| 20260505094800 | 63 | 264 | 2.0 | 9.0 | 0.00 | 0.00 | 0.00 | 55 | 1010.7 |
| 20260505094157 | 63 | 245 | 1.0 | 9.0 | 0.00 | 0.00 | 0.00 | 55 | 1010.7 |
| 20260505094138 | 63 | 292 | 1.0 | 9.0 | 0.00 | 0.00 | 0.00 | 55 | 1010.7 |
| 20260505094132 | 63 | 209 | 2.0 | 12.0 | 0.00 | 0.00 | 0.00 | 55 | 1010.7 |
| 20260505092736 | 63 | 237 | 2.0 | 9.0 | 0.00 | 0.00 | 0.00 | 55 | 1010.6 |
| 20260505092718 | 63 | 258 | 2.0 | 8.0 | 0.00 | 0.00 | 0.00 | 55 | 1010.5 |
| 20260505092425 | 63 | 264 | 1.0 | 12.0 | 0.00 | 0.00 | 0.00 | 55 | 1010.7 |
| 20260505092402 | 63 | 256 | 1.0 | 3.0 | 0.00 | 0.00 | 0.00 | 54 | 1010.5 |
| 20260505092348 | 63 | 250 | 1.0 | 7.0 | 0.00 | 0.00 | 0.00 | 55 | 1010.5 |
| 20260505092207 | 63 | 252 | 2.0 | 9.0 | 0.00 | 0.00 | 0.00 | 55 | 1010.7 |
| 20260505091546 | 63 | 273 | 2.0 | 9.0 | 0.00 | 0.00 | 0.00 | 55 | 1010.6 |
| 20260505090021 | 63 | 252 | 1.0 | 8.0 | 0.00 | 0.00 | 0.00 | 55 | 1010.5 |
| 20260505085333 | 63 | 203 | 1.0 | 7.0 | 0.00 | 0.00 | 0.00 | 55 | 1010.5 |
| 20260505084730 | 63 | 275 | 2.0 | 4.0 | 0.00 | 0.00 | 0.00 | 55 | 1010.4 |
| 20260505084323 | 63 | 242 | 2.0 | 8.0 | 0.00 | 0.00 | 0.00 | 55 | 1010.5 |
| 20260505083355 | 63 | 215 | 1.0 | 7.0 | 0.00 | 0.00 | 0.00 | 55 | 1010.3 |
| 20260505081750 | 63 | 234 | 1.0 | 10.0 | 0.00 | 0.00 | 0.00 | 55 | 1010.5 |
| 20260505081737 | 63 | 189 | 1.0 | 10.0 | 0.00 | 0.00 | 0.00 | 55 | 1010.4 |
| 20260505081728 | 64 | 277 | 1.0 | 6.0 | 0.00 | 0.00 | 0.00 | 55 | 1010.5 |
| 20260505081715 | 64 | 244 | 1.0 | 9.0 | 0.00 | 0.00 | 0.00 | 55 | 1010.5 |
| 20260505081626 | 63 | 257 | 1.0 | 6.0 | 0.00 | 0.00 | 0.00 | 55 | 1010.5 |
| 20260505081127 | 63 | 167 | 1.0 | 6.0 | 0.00 | 0.00 | 0.00 | 55 | 1010.5 |
| 20260505080404 | 63 | 234 | 1.0 | 10.0 | 0.00 | 0.00 | 0.00 | 55 | 1010.5 |
| 20260505080105 | 64 | 248 | 1.0 | 8.0 | 0.00 | 0.00 | 0.00 | 55 | 1010.4 |
| 20260505075733 | 63 | 189 | 1.0 | 10.0 | 0.00 | 0.00 | 0.00 | 55 | 1010.4 |
| 20260505074608 | 64 | 244 | 1.0 | 9.0 | 0.00 | 0.00 | 0.00 | 55 | 1010.5 |
| 20260505074354 | 64 | 207 | 1.0 | 12.0 | 0.00 | 0.00 | 0.00 | 55 | 1010.2 |
| 20260505074330 | 64 | 243 | 1.0 | 12.0 | 0.00 | 0.00 | 0.00 | 55 | 1010.3 |
| 20260505074314 | 64 | 252 | 1.0 | 4.0 | 0.00 | 0.00 | 0.00 | 55 | 1010.3 |
| 20260505074155 | 64 | 278 | 1.0 | 8.0 | 0.00 | 0.00 | 0.00 | 55 | 1010.4 |
| 20260505070641 | 64 | 227 | 1.0 | 7.0 | 0.00 | 0.00 | 0.00 | 55 | 1010.3 |
| 20260505070559 | 64 | 202 | 1.0 | 8.0 | 0.00 | 0.00 | 0.00 | 55 | 1010.3 |
| 20260505065401 | 64 | 294 | 1.0 | 3.0 | 0.00 | 0.00 | 0.00 | 55 | 1010.3 |
| 20260505065343 | 64 | 211 | 1.0 | 9.0 | 0.00 | 0.00 | 0.00 | 55 | 1010.3 |
| 20260505065326 | 64 | 241 | 1.0 | 7.0 | 0.00 | 0.00 | 0.00 | 55 | 1010.3 |
| 20260505064706 | 64 | 250 | 1.0 | 7.0 | 0.00 | 0.00 | 0.00 | 55 | 1010.3 |
| 20260505063115 | 64 | 246 | 1.0 | 9.0 | 0.00 | 0.00 | 0.00 | 55 | 1010.3 |
| 20260505062638 | 64 | 236 | 1.0 | 9.0 | 0.00 | 0.00 | 0.00 | 55 | 1010.3 |
| 20260505061842 | 64 | 146 | 1.0 | 8.0 | 0.00 | 0.00 | 0.00 | 55 | 1010.2 |
| 20260505061226 | 64 | 239 | 1.0 | 10.0 | 0.00 | 0.00 | 0.00 | 55 | 1010.2 |
| 20260505061201 | 64 | 248 | 1.0 | 10.0 | 0.00 | 0.00 | 0.00 | 55 | 1010.3 |
| 20260505060225 | 64 | 250 | 1.0 | 9.0 | 0.00 | 0.00 | 0.00 | 55 | 1010.2 |
| 20260505055555 | 64 | 213 | 1.0 | 12.0 | 0.00 | 0.00 | 0.00 | 55 | 1010.2 |
| 20260505055545 | 64 | 257 | 1.0 | 9.0 | 0.00 | 0.00 | 0.00 | 55 | 1010.2 |
| 20260505054345 | 63 | 197 | 0.0 | 8.0 | 0.00 | 0.00 | 0.00 | 54 | 1010.4 |
| 20260505054336 | 64 | 220 | 1.0 | 12.0 | 0.00 | 0.00 | 0.00 | 55 | 1010.3 |
| 20260505053518 | 63 | 184 | 1.0 | 8.0 | 0.00 | 0.00 | 0.00 | 54 | 1010.3 |
| 20260505053003 | 63 | 169 | 1.0 | 11.0 | 0.00 | 0.00 | 0.00 | 54 | 1010.2 |
| 20260505052236 | 64 | 155 | 0.0 | 0.0 | 0.00 | 0.00 | 0.00 | 54 | 1010.2 |
| 20260505052142 | 63 | 169 | 0.0 | 5.0 | 0.00 | 0.00 | 0.00 | 54 | 1010.2 |
| 20260505050839 | 64 | 194 | 0.0 | 4.0 | 0.00 | 0.00 | 0.00 | 53 | 1010.2 |
| 20260505050830 | 64 | 155 | 0.0 | 6.0 | 0.00 | 0.00 | 0.00 | 54 | 1010.1 |
| 20260505050213 | 64 | 172 | 0.0 | 3.0 | 0.00 | 0.00 | 0.00 | 53 | 1010.3 |
| 20260505041756 | 64 | 180 | 0.0 | 5.0 | 0.00 | 0.00 | 0.00 | 52 | 1010.2 |
| 20260505041113 | 64 | 180 | 0.0 | 4.0 | 0.00 | 0.00 | 0.00 | 52 | 1010.2 |
| 20260505040617 | 64 | 177 | 0.0 | 2.0 | 0.00 | 0.00 | 0.00 | 52 | 1010.1 |
| 20260505040000 | 64 | 179 | 0.0 | 6.0 | 0.00 | 0.00 | 0.00 | 52 | 1010.1 |
| 20260505035932 | 64 | 179 | 0.0 | 6.0 | 0.00 | 0.00 | 0.00 | 52 | 1010.1 |
| 20260505034944 | 64 | 178 | 0.0 | 6.0 | 0.00 | 0.00 | 0.00 | 52 | 1010.0 |
| 20260505034322 | 64 | 176 | 0.0 | 4.0 | 0.00 | 0.00 | 0.00 | 52 | 1010.1 |
| 20260505034308 | 64 | 177 | 0.0 | 0.0 | 0.00 | 0.00 | 0.00 | 52 | 1010.0 |
| 20260505033058 | 63 | 175 | 0.0 | 2.0 | 0.00 | 0.00 | 0.00 | 52 | 1010.1 |
| 20260505032459 | 63 | 175 | 0.0 | 5.0 | 0.00 | 0.00 | 0.00 | 52 | 1010.1 |
| 20260505032141 | 63 | 173 | 0.0 | 3.0 | 0.00 | 0.00 | 0.00 | 52 | 1010.1 |
| 20260505031527 | 63 | 173 | 0.0 | 6.0 | 0.00 | 0.00 | 0.00 | 52 | 1010.1 |
| 20260505030810 | 63 | 173 | 0.0 | 6.0 | 0.00 | 0.00 | 0.00 | 52 | 1010.1 |
| 20260505030134 | 62 | 170 | 0.0 | 6.0 | 0.00 | 0.00 | 0.00 | 53 | 1010.1 |
| 20260505025534 | 62 | 170 | 0.0 | 6.0 | 0.00 | 0.00 | 0.00 | 53 | 1010.1 |
| 20260505024938 | 62 | 169 | 0.0 | 3.0 | 0.00 | 0.00 | 0.00 | 53 | 1010.2 |
| 20260505024842 | 62 | 169 | 0.0 | 2.0 | 0.00 | 0.00 | 0.00 | 53 | 1010.1 |
| 20260505024233 | 62 | 169 | 0.0 | 0.0 | 0.00 | 0.00 | 0.00 | 53 | 1010.2 |
| 20260505023329 | 62 | 169 | 0.0 | 1.0 | 0.00 | 0.00 | 0.00 | 53 | 1010.1 |
| 20260505022638 | 62 | 169 | 0.0 | 1.0 | 0.00 | 0.00 | 0.00 | 53 | 1010.1 |
| 20260505022149 | 62 | 169 | 0.0 | 0.0 | 0.00 | 0.00 | 0.00 | 54 | 1009.9 |
| 20260505022047 | 62 | 169 | 0.0 | 0.0 | 0.00 | 0.00 | 0.00 | 53 | 1010.0 |
| 20260505021205 | 63 | 169 | 0.0 | 0.0 | 0.00 | 0.00 | 0.00 | 54 | 1010.0 |
| 20260505020505 | 63 | 169 | 0.0 | 0.0 | 0.00 | 0.00 | 0.00 | 54 | 1009.9 |
| 20260505015816 | 63 | 169 | 0.0 | 0.0 | 0.00 | 0.00 | 0.00 | 55 | 1009.9 |
| 20260505015531 | 63 | 169 | 0.0 | 0.0 | 0.00 | 0.00 | 0.00 | 56 | 1009.9 |
| 20260505014704 | 64 | 169 | 0.0 | 0.0 | 0.00 | 0.00 | 0.00 | 59 | 1010.0 |
| 20260505014700 | 64 | 169 | 0.0 | 1.0 | 0.00 | 0.00 | 0.00 | 60 | 1010.0 |
| 20260505014656 | 64 | 169 | 0.0 | 1.0 | 0.00 | 0.00 | 0.00 | 60 | 1010.0 |
| 20260505014607 | 64 | 169 | 0.0 | 0.0 | 0.00 | 0.00 | 0.00 | 58 | 1010.0 |
| 20260505012536 | 64 | 169 | 0.0 | 1.0 | 0.00 | 0.00 | 0.00 | 57 | 1009.9 |
| 20260505011659 | 64 | 169 | 0.0 | 0.0 | 0.00 | 0.00 | 0.00 | 55 | 1009.9 |
| 20260505011634 | 65 | 169 | 0.0 | 0.0 | 0.00 | 0.00 | 0.00 | 56 | 1009.9 |
| 20260505010451 | 65 | 169 | 0.0 | 0.0 | 0.00 | 0.00 | 0.00 | 56 | 1009.9 |
| 20260505010242 | 65 | 169 | 0.0 | 0.0 | 0.00 | 0.00 | 0.00 | 55 | 1009.7 |
| 20260505005527 | 65 | 169 | 0.0 | 0.0 | 0.00 | 0.00 | 0.00 | 55 | 1009.6 |
| 20260505005027 | 66 | 169 | 0.0 | 0.0 | 0.00 | 0.00 | 0.00 | 54 | 1009.5 |
| 20260505004954 | 65 | 169 | 0.0 | 0.0 | 0.00 | 0.00 | 0.00 | 54 | 1009.6 |
| 20260505004415 | 66 | 169 | 0.0 | 0.0 | 0.00 | 0.00 | 0.00 | 54 | 1009.5 |
| 20260505003442 | 66 | 169 | 0.0 | 0.0 | 0.00 | 0.00 | 0.00 | 54 | 1009.5 |
| 20260505002721 | 67 | 169 | 0.0 | 0.0 | 0.00 | 0.00 | 0.00 | 53 | 1009.5 |
| 20260505001832 | 67 | 169 | 0.0 | 0.0 | 0.00 | 0.00 | 0.00 | 53 | 1009.6 |
| 20260505001256 | 67 | 169 | 0.0 | 4.0 | 0.00 | 0.00 | 0.00 | 53 | 1009.5 |
| 20260505000729 | 68 | 169 | 0.0 | 4.0 | 0.00 | 0.00 | 0.00 | 52 | 1009.5 |
| 20260505000417 | 68 | 169 | 0.0 | 0.0 | 0.00 | 0.00 | 0.00 | 51 | 1009.4 |
| 20260504235639 | 69 | 169 | 0.0 | 0.0 | 0.00 | 0.00 | 0.00 | 50 | 1009.3 |
| 20260504235054 | 69 | 169 | 0.0 | 0.0 | 0.00 | 0.00 | 0.00 | 49 | 1009.3 |
| 20260504234528 | 70 | 169 | 0.0 | 0.0 | 0.00 | 0.00 | 0.00 | 49 | 1009.3 |
| 20260504234031 | 70 | 169 | 0.0 | 0.0 | 0.00 | 0.00 | 0.00 | 48 | 1009.3 |
| 20260504233530 | 70 | 169 | 0.0 | 0.0 | 0.00 | 0.00 | 0.00 | 47 | 1009.3 |
| 20260504233157 | 71 | 169 | 0.0 | 0.0 | 0.00 | 0.00 | 0.00 | 47 | 1009.3 |
| 20260504232320 | 71 | 169 | 0.0 | 0.0 | 0.00 | 0.00 | 0.00 | 45 | 1009.2 |
| 20260504231746 | 71 | 169 | 0.0 | 0.0 | 0.00 | 0.00 | 0.00 | 45 | 1009.1 |
| 20260504231241 | 71 | 169 | 0.0 | 2.0 | 0.00 | 0.00 | 0.00 | 44 | 1009.1 |
| 20260504230653 | 71 | 169 | 0.0 | 2.0 | 0.00 | 0.00 | 0.00 | 43 | 1009.1 |
| 20260504230124 | 71 | 169 | 0.0 | 0.0 | 0.00 | 0.00 | 0.00 | 42 | 1009.1 |
| 20260504225543 | 71 | 169 | 0.0 | 2.0 | 0.00 | 0.00 | 0.00 | 42 | 1009.1 |
| 20260504225004 | 71 | 169 | 0.0 | 7.0 | 0.00 | 0.00 | 0.00 | 41 | 1009.2 |
| 20260504224428 | 70 | 169 | 1.0 | 7.0 | 0.00 | 0.00 | 0.00 | 42 | 1009.3 |
| 20260504223901 | 70 | 171 | 0.0 | 3.0 | 0.00 | 0.00 | 0.00 | 43 | 1009.2 |
| 20260504223334 | 70 | 171 | 0.0 | 0.0 | 0.00 | 0.00 | 0.00 | 44 | 1009.2 |
| 20260504223235 | 69 | 171 | 0.0 | 5.0 | 0.00 | 0.00 | 0.00 | 48 | 1009.3 |
| 20260504222229 | 69 | 165 | 0.0 | 1.0 | 0.00 | 0.00 | 0.00 | 53 | 1009.3 |
| 20260504221630 | 69 | 165 | 0.0 | 1.0 | 0.00 | 0.00 | 0.00 | 54 | 1009.3 |
| 20260504221046 | 69 | 165 | 0.0 | 1.0 | 0.00 | 0.00 | 0.00 | 54 | 1009.4 |
| 20260504220507 | 69 | 165 | 0.0 | 5.0 | 0.00 | 0.00 | 0.00 | 54 | 1009.4 |
| 20260504215934 | 69 | 165 | 0.0 | 5.0 | 0.00 | 0.00 | 0.00 | 55 | 1009.5 |
| 20260504215624 | 69 | 166 | 1.0 | 7.0 | 0.00 | 0.00 | 0.00 | 55 | 1009.4 |
| 20260504214838 | 69 | 166 | 1.0 | 7.0 | 0.00 | 0.00 | 0.00 | 55 | 1009.5 |
| 20260504214443 | 69 | 159 | 1.0 | 7.0 | 0.00 | 0.00 | 0.00 | 55 | 1009.5 |
| 20260504213723 | 69 | 137 | 1.0 | 7.0 | 0.00 | 0.00 | 0.00 | 56 | 1009.5 |
| 20260504213418 | 69 | 102 | 1.0 | 11.0 | 0.00 | 0.00 | 0.00 | 56 | 1009.5 |
| 20260504212820 | 69 | 142 | 2.0 | 11.0 | 0.00 | 0.00 | 0.00 | 56 | 1009.6 |
| 20260504212412 | 70 | 196 | 1.0 | 10.0 | 0.00 | 0.00 | 0.00 | 55 | 1009.7 |
| 20260504211424 | 70 | 130 | 1.0 | 8.0 | 0.00 | 0.00 | 0.00 | 55 | 1009.7 |
| 20260504210910 | 70 | 137 | 1.0 | 8.0 | 0.00 | 0.00 | 0.00 | 55 | 1009.7 |
| 20260504210333 | 70 | 140 | 2.0 | 9.0 | 0.00 | 0.00 | 0.00 | 54 | 1009.7 |
| 20260504205749 | 70 | 223 | 2.0 | 5.0 | 0.00 | 0.00 | 0.00 | 55 | 1009.6 |
| 20260504205202 | 70 | 143 | 2.0 | 10.0 | 0.00 | 0.00 | 0.00 | 53 | 1009.7 |
| 20260504204628 | 71 | 194 | 1.0 | 9.0 | 0.00 | 0.00 | 0.00 | 52 | 1009.6 |
| 20260504204052 | 71 | 207 | 1.0 | 8.0 | 0.00 | 0.00 | 0.00 | 50 | 1009.6 |
| 20260504203523 | 71 | 208 | 1.0 | 8.0 | 0.00 | 0.00 | 0.00 | 50 | 1009.7 |
| 20260504202957 | 71 | 169 | 2.0 | 11.0 | 0.00 | 0.00 | 0.00 | 49 | 1009.7 |
| 20260504202429 | 71 | 178 | 2.0 | 11.0 | 0.00 | 0.00 | 0.00 | 49 | 1009.8 |
| 20260504201851 | 71 | 150 | 2.0 | 9.0 | 0.00 | 0.00 | 0.00 | 47 | 1009.8 |
| 20260504201303 | 71 | 153 | 2.0 | 9.0 | 0.00 | 0.00 | 0.00 | 47 | 1009.9 |
| 20260504200727 | 71 | 146 | 2.0 | 12.0 | 0.00 | 0.00 | 0.00 | 47 | 1010.0 |
| 20260504200419 | 71 | 205 | 2.0 | 12.0 | 0.00 | 0.00 | 0.00 | 47 | 1010.1 |
| 20260504195728 | 71 | 132 | 3.0 | 13.0 | 0.00 | 0.00 | 0.00 | 47 | 1010.2 |
| 20260504195032 | 71 | 155 | 3.0 | 13.0 | 0.00 | 0.00 | 0.00 | 47 | 1010.2 |
| 20260504194743 | 71 | 137 | 3.0 | 12.0 | 0.00 | 0.00 | 0.00 | 47 | 1010.2 |
| 20260504193935 | 71 | 123 | 2.0 | 12.0 | 0.00 | 0.00 | 0.00 | 46 | 1010.4 |
| 20260504193407 | 71 | 130 | 1.0 | 9.0 | 0.00 | 0.00 | 0.00 | 47 | 1010.6 |
| 20260504192820 | 71 | 144 | 2.0 | 10.0 | 0.00 | 0.00 | 0.00 | 46 | 1010.6 |
| 20260504192250 | 71 | 176 | 2.0 | 10.0 | 0.00 | 0.00 | 0.00 | 46 | 1010.7 |
| 20260504191712 | 71 | 155 | 2.0 | 9.0 | 0.00 | 0.00 | 0.00 | 45 | 1010.8 |
| 20260504191112 | 71 | 153 | 1.0 | 5.0 | 0.00 | 0.00 | 0.00 | 46 | 1010.8 |
| 20260504190535 | 71 | 109 | 2.0 | 10.0 | 0.00 | 0.00 | 0.00 | 46 | 1010.7 |
| 20260504190030 | 71 | 128 | 1.0 | 11.0 | 0.00 | 0.00 | 0.00 | 48 | 1010.7 |
| 20260504185620 | 70 | 229 | 1.0 | 11.0 | 0.00 | 0.00 | 0.00 | 47 | 1010.9 |
| 20260504185217 | 70 | 165 | 2.0 | 12.0 | 0.00 | 0.00 | 0.00 | 48 | 1011.0 |
| 20260504184952 | 70 | 165 | 2.0 | 12.0 | 0.00 | 0.00 | 0.00 | 48 | 1011.0 |
| 20260504184332 | 69 | 166 | 2.0 | 12.0 | 0.00 | 0.00 | 0.00 | 47 | 1011.1 |
| 20260504183632 | 70 | 142 | 2.0 | 9.0 | 0.00 | 0.00 | 0.00 | 49 | 1011.1 |
| 20260504183049 | 70 | 161 | 2.0 | 9.0 | 0.00 | 0.00 | 0.00 | 47 | 1011.1 |
| 20260504182521 | 71 | 137 | 2.0 | 9.0 | 0.00 | 0.00 | 0.00 | 48 | 1011.2 |
| 20260504181947 | 71 | 152 | 2.0 | 10.0 | 0.00 | 0.00 | 0.00 | 49 | 1011.2 |
| 20260504181341 | 72 | 143 | 2.0 | 7.0 | 0.00 | 0.00 | 0.00 | 49 | 1011.3 |
| 20260504180809 | 72 | 135 | 2.0 | 13.0 | 0.00 | 0.00 | 0.00 | 47 | 1011.4 |
| 20260504180242 | 72 | 175 | 2.0 | 8.0 | 0.00 | 0.00 | 0.00 | 44 | 1011.4 |
| 20260504175739 | 74 | 154 | 1.0 | 7.0 | 0.00 | 0.00 | 0.00 | 40 | 1011.3 |
| 20260504175128 | 75 | 178 | 1.0 | 7.0 | 0.00 | 0.00 | 0.00 | 37 | 1011.3 |
| 20260504174631 | 75 | 223 | 1.0 | 7.0 | 0.00 | 0.00 | 0.00 | 32 | 1011.3 |
| 20260504174443 | 75 | 178 | 1.0 | 8.0 | 0.00 | 0.00 | 0.00 | 33 | 1011.4 |
| 20260504173515 | 73 | 236 | 1.0 | 8.0 | 0.00 | 0.00 | 0.00 | 33 | 1011.6 |
| 20260504173450 | 74 | 258 | 2.0 | 7.0 | 0.00 | 0.00 | 0.00 | 33 | 1011.5 |
| 20260504172243 | 73 | 228 | 1.0 | 6.0 | 0.00 | 0.00 | 0.00 | 32 | 1011.8 |
| 20260504171703 | 73 | 223 | 1.0 | 5.0 | 0.00 | 0.00 | 0.00 | 33 | 1011.8 |
| 20260504171155 | 73 | 207 | 1.0 | 8.0 | 0.00 | 0.00 | 0.00 | 35 | 1011.9 |
| 20260504170537 | 73 | 227 | 1.0 | 6.0 | 0.00 | 0.00 | 0.00 | 34 | 1011.9 |
| 20260504160328 | 70 | 223 | 0.0 | 4.0 | 0.00 | 0.00 | 0.00 | 35 | 1012.6 |
| 20260504150808 | 67 | 225 | 0.0 | 3.0 | 0.00 | 0.00 | 0.00 | 40 | 1013.0 |
| 20260504150304 | 66 | 225 | 0.0 | 3.0 | 0.00 | 0.00 | 0.00 | 41 | 1013.0 |
| 20260504141128 | 62 | 227 | 2.0 | 11.0 | 0.00 | 0.00 | 0.00 | 46 | 1013.0 |
| 20260504140650 | 61 | 236 | 2.0 | 9.0 | 0.00 | 0.00 | 0.00 | 46 | 1013.0 |
| 20260504140620 | 62 | 194 | 2.0 | 9.0 | 0.00 | 0.00 | 0.00 | 46 | 1013.0 |